Location: Bismarck
(46.7731°N, 100.8200°W)
Time: 08:37:31
(UTC-06:00)

ISS - Visible Passes

Search period start: 31 January 2015 00:00
Search period end: 10 February 2015 00:00
Orbit: 400 x 408 km, 51.6° (Epoch: 31 January)

Date Brightness Start Highest point End Pass type
(mag) Time Alt. Az. Time Alt. Az. Time Alt. Az.
04 Feb -0.9 19:06:03 10° SE 19:06:28 10° SE 19:06:28 10° SE visible
05 Feb -2.0 19:47:11 10° SSW 19:49:17 29° S 19:49:17 29° S visible
06 Feb -1.7 18:55:20 10° S 18:57:54 22° SE 18:59:18 17° ESE visible
06 Feb -0.7 20:30:51 10° WSW 20:31:57 19° WSW 20:31:57 19° WSW visible
07 Feb -3.5 19:38:21 10° SW 19:41:37 74° SSE 19:41:51 69° ESE visible
08 Feb -2.7 18:46:02 10° SW 18:49:09 43° SE 18:51:39 15° ENE visible
08 Feb -1.3 20:22:28 10° W 20:24:18 28° WNW 20:24:18 28° WNW visible
09 Feb -3.1 19:29:45 10° WSW 19:33:00 63° NNW 19:34:00 39° NE visible
